Regional Weather Roundup
Issued by NWS Binghamton, NY

Home | Current Version | Previous Version | Text Only | Print | Product List | Glossary On
Versions: 1 2 3 4 5 6 7 8 9 10 11 12 13 14 15 16 17 18 19 20 21 22 23 24 25 26 27
000
ASUS41 KBGM 250610
RWRBGM
RWRBGM
BINGHAMTON REGIONAL WEATHER ROUNDUP
NATIONAL WEATHER SERVICE BINGHAMTON NY
200 AM EDT FRI APR 25 2014

Note: "fair" indicates few or no clouds below 12,000 feet with no
significant weather and/or obstructions to visibility.

* = Station(s) that does not report precipitation, such as rain,
snow, etc, also no thunder or fog.

!NYZ009-015>018-022>025-036-037-044>046-055>057-062-250700
...CENTRAL NEW YORK...

CITY           SKY/WX    TMP DP  RH WIND       PRES   REMARKS
BINGHAMTON     FAIR      38  17  42 CALM      30.01F
CORTLAND       FAIR      30  27  86 CALM      30.04F
DANSVILLE      FAIR      36  25  64 SE8       30.02F WCI  30
ELMIRA         FAIR      29  21  72 NE3       30.03F
ITHACA         FAIR      31  24  75 E5        30.03F WCI  26
HAMILTON       CLEAR     30  25  80 CALM      30.03
HORNELL        CLEAR     30  25  80 SE3       30.04F
MONTICELLO     FAIR      36  18  48 NW6       30.04S WCI  31
NORWICH        CLEAR     27  23  86 CALM      30.05S
ONEONTA        CLEAR     36  16  44 CALM      30.01S
PENN YAN       FAIR      34  26  72 SW3       30.02F
ROME           FAIR      31  20  63 E3        30.06S
SIDNEY         CLEAR     28  25  86 CALM      30.05S
SYRACUSE       FAIR      36  23  59 E3        30.04S
$$

!PAZ038>040-043-044-047-048-072-250700
...NORTHEAST PENNSYLVANIA...

CITY           SKY/WX    TMP DP  RH WIND       PRES   REMARKS
SCRANTON       FAIR      39  18  42 VRB5      30.03F
$$
&&
KEY
WCI = WIND CHILL INDEX
VSB = VISIBILITY
HX  = HEAT INDEX
$$



USA.gov is the U.S. government's official web portal to all federal, state and local government web resources and services.